Frankfort, MI

10:49 AM EST on December 14, 2019 (GMT -0500)
Frankfort

Weather History for KFKS - October, 2019

Change the Weather History Date:

Friday, October 25, 2019

  Actual Average (KMBL) Record (KMBL)
Temperature  
Mean Temperature 41 °F -  
Max Temperature 48 °F 56 °F 75 °F (1963)
Min Temperature 34 °F 40 °F 22 °F (1992)
Degree Days  
Heating Degree Days 24    
Moisture  
Dew Point 27 °F    
Average Humidity 52    
Maximum Humidity 78    
Minimum Humidity 41    
Precipitation  
Precipitation 0.00 in - - ()
Sea Level Pressure  
Sea Level Pressure 30.27 in    
Wind  
Wind Speed 5 mph (WSW)    
Max Wind Speed 10 mph    
Max Gust Speed 17 mph    
Visibility 10 miles    
Events      
Averages and records for this station are not official NWS values.
T = Trace of Precipitation, MM = Missing Value Source: NWS Daily Summary

Daily Weather History Graph

Daily Weather History Graph

Search for Another Location

Airport or City:

Astronomy

Oct. 25, 2019 Rise Set
Actual Time 8:12 AM EDT 6:44 PM EDT
Civil Twilight 7:42 AM EDT 7:14 PM EDT
Nautical Twilight 7:08 AM EDT 7:48 PM EDT
Astronomical Twilight 6:34 AM EDT 8:21 PM EDT
Moon 4:43 AM EDT (10/25) 5:55 PM EDT (10/25)
Length of Visible Light 11h 31m
Length of Day
10h 31m
Waning Crescent, 9% of the Moon is Illuminated
Oct 25
Waning Crescent
Oct 27
New
Nov 4
First Quarter
Nov 12
Full
Nov 19
Last Quarter

Hourly Weather History & Observations

Time (EDT) Temp. Windchill Dew Point Humidity Pressure Visibility Wind Dir Wind Speed Gust Speed Precip Events Conditions
12:15 AM 46.8 °F - 31.1 °F 55% 30.32 in 10.0 mi West 4.6 mph - N/A   Overcast
12:35 AM 46.9 °F - 30.6 °F 53% 30.33 in 10.0 mi West 4.6 mph - N/A   Overcast
12:59 AM 46.8 °F - 29.5 °F 51% 30.32 in 10.0 mi West 5.8 mph - N/A   Overcast
1:17 AM 46.8 °F - 29.3 °F 51% 30.32 in 10.0 mi West 3.5 mph - N/A   Overcast
1:35 AM 46.8 °F - 28.6 °F 49% 30.32 in 10.0 mi WSW 9.2 mph - N/A   Overcast
1:36 AM 46.8 °F - 28.2 °F 49% 30.32 in 10.0 mi West 6.9 mph - N/A   Overcast
1:55 AM 46.8 °F - 27.3 °F 47% 30.31 in 10.0 mi West 5.8 mph - N/A   Overcast
2:15 AM 46.6 °F - 26.8 °F 46% 30.31 in 10.0 mi West 3.5 mph - N/A   Mostly Cloudy
2:38 AM 46.6 °F - 28.4 °F 49% 30.31 in 10.0 mi West 6.9 mph - N/A   Overcast
2:56 AM 46.8 °F - 28.8 °F 50% 30.31 in 10.0 mi West 3.5 mph - N/A   Overcast
3:15 AM 46.6 °F - 29.1 °F 51% 30.31 in 10.0 mi WNW 5.8 mph - N/A   Overcast
3:35 AM 46.6 °F - 29.1 °F 51% 30.30 in 10.0 mi West 8.1 mph - N/A   Overcast
3:59 AM 46.6 °F - 28.6 °F 50% 30.31 in 10.0 mi West 4.6 mph - N/A   Overcast
4:17 AM 46.4 °F - 27.3 °F 47% 30.30 in 10.0 mi Calm Calm - N/A   Overcast
4:35 AM 46.4 °F 45.2 °F 26.2 °F 45% 30.29 in 10.0 mi West 3.5 mph - N/A   Overcast
4:36 AM 46.4 °F 43.5 °F 26.2 °F 45% 30.29 in 10.0 mi West 5.8 mph - N/A   Overcast
4:55 AM 46.2 °F 43.3 °F 26.8 °F 47% 30.29 in 10.0 mi West 5.8 mph - N/A   Overcast
4:56 AM 46.2 °F 43.3 °F 26.6 °F 46% 30.29 in 10.0 mi West 5.8 mph - N/A   Overcast
5:15 AM 46.2 °F 43.3 °F 26.8 °F 47% 30.30 in 10.0 mi WNW 5.8 mph - N/A   Overcast
5:38 AM 46.2 °F 44.1 °F 27.0 °F 47% 30.31 in 10.0 mi WNW 4.6 mph - N/A   Overcast
5:56 AM 45.9 °F 44.6 °F 25.3 °F 45% 30.31 in 10.0 mi West 3.5 mph - N/A   Overcast
6:15 AM 46.0 °F 42.5 °F 27.5 °F 48% 30.32 in 10.0 mi WNW 6.9 mph - N/A   Overcast
6:16 AM 46.0 °F 42.5 °F 27.5 °F 48% 30.32 in 10.0 mi WNW 6.9 mph - N/A   Overcast
6:35 AM 46.0 °F 43.9 °F 27.5 °F 48% 30.31 in 10.0 mi West 4.6 mph - N/A   Overcast
6:59 AM 45.9 °F - 28.0 °F 50% 30.32 in 10.0 mi Calm Calm - N/A   Overcast
7:17 AM 45.9 °F 42.9 °F 28.2 °F 50% 30.32 in 10.0 mi WSW 5.8 mph - N/A   Overcast
7:35 AM 45.9 °F 44.6 °F 27.3 °F 48% 30.32 in 10.0 mi West 3.5 mph - N/A   Overcast
7:36 AM 45.9 °F 43.6 °F 27.5 °F 49% 30.32 in 10.0 mi West 4.6 mph - N/A   Overcast
7:55 AM 45.9 °F - 27.0 °F 48% 30.31 in 10.0 mi Calm Calm - N/A   Overcast
7:56 AM 45.9 °F - 26.8 °F 47% 30.31 in 10.0 mi Calm Calm - N/A   Overcast
8:15 AM 45.7 °F 44.4 °F 27.1 °F 48% 30.31 in 10.0 mi West 3.5 mph - N/A   Overcast
8:38 AM 45.5 °F 42.5 °F 28.0 °F 51% 30.31 in 10.0 mi WNW 5.8 mph - N/A   Overcast
8:56 AM 45.5 °F 41.8 °F 28.0 °F 51% 30.31 in 10.0 mi WNW 6.9 mph - N/A   Overcast
9:15 AM 45.5 °F 43.2 °F 27.1 °F 49% 30.32 in 10.0 mi West 4.6 mph - N/A   Overcast
9:16 AM 45.5 °F 43.2 °F 27.1 °F 49% 30.32 in 10.0 mi West 4.6 mph - N/A   Overcast
9:35 AM 45.5 °F 41.8 °F 27.3 °F 49% 30.33 in 10.0 mi WNW 6.9 mph - N/A   Overcast
9:36 AM 45.5 °F 41.3 °F 27.1 °F 49% 30.32 in 10.0 mi WNW 8.1 mph - N/A   Overcast
9:59 AM 45.5 °F 41.8 °F 27.1 °F 49% 30.32 in 10.0 mi WNW 6.9 mph - N/A   Overcast
10:17 AM 45.5 °F 41.8 °F 27.1 °F 49% 30.33 in 10.0 mi West 6.9 mph - N/A   Overcast
10:35 AM 45.5 °F 40.8 °F 26.6 °F 48% 30.33 in 10.0 mi WNW 9.2 mph - N/A   Overcast
10:36 AM 45.5 °F 40.8 °F 26.6 °F 48% 30.33 in 10.0 mi West 9.2 mph - N/A   Overcast
10:55 AM 45.5 °F 42.5 °F 26.6 °F 48% 30.33 in 10.0 mi WNW 5.8 mph - N/A   Overcast
10:56 AM 45.5 °F 41.8 °F 26.8 °F 48% 30.33 in 10.0 mi West 6.9 mph - N/A   Overcast
11:15 AM 45.7 °F 42.7 °F 26.6 °F 47% 30.32 in 10.0 mi West 5.8 mph - N/A   Overcast
11:20 AM 45.9 °F 41.2 °F 26.8 °F 47% 30.32 in 10.0 mi West 9.2 mph - N/A   Overcast
11:38 AM 45.9 °F 41.2 °F 26.6 °F 47% 30.31 in 10.0 mi West 9.2 mph - N/A   Overcast
11:56 AM 46.4 °F 41.9 °F 26.2 °F 45% 30.31 in 10.0 mi West 9.2 mph - N/A   Overcast
12:15 PM 47.3 °F - 25.2 °F 42% 30.31 in 10.0 mi WSW 8.1 mph - N/A   Overcast
12:35 PM 47.3 °F - 25.0 °F 42% 30.31 in 10.0 mi WSW 9.2 mph - N/A   Overcast
12:36 PM 47.1 °F - 25.0 °F 42% 30.31 in 10.0 mi WSW 8.1 mph - N/A   Overcast
12:59 PM 46.2 °F 43.3 °F 24.6 °F 43% 30.30 in 10.0 mi WSW 5.8 mph - N/A   Overcast
1:17 PM 46.6 °F - 24.8 °F 43% 30.30 in 10.0 mi SW 5.8 mph - N/A   Mostly Cloudy
1:35 PM 48.0 °F - 26.2 °F 43% 30.30 in 10.0 mi SW 10.4 mph 16.1 mph N/A   Scattered Clouds
1:55 PM 47.8 °F - 24.8 °F 41% 30.29 in 10.0 mi SW 8.1 mph - N/A   Scattered Clouds
1:56 PM 47.7 °F - 25.0 °F 41% 30.29 in 10.0 mi SW 8.1 mph - N/A   Scattered Clouds
2:15 PM 47.8 °F - 26.1 °F 43% 30.29 in 10.0 mi WSW 10.4 mph - N/A   Clear
2:38 PM 47.7 °F - 25.0 °F 41% 30.27 in 10.0 mi WSW 9.2 mph 17.3 mph N/A   Clear
2:56 PM 47.8 °F - 25.9 °F 42% 30.27 in 10.0 mi WSW 8.1 mph - N/A   Clear
3:15 PM 47.1 °F - 25.7 °F 43% 30.25 in 10.0 mi West 9.2 mph - N/A   Clear
3:16 PM 47.3 °F - 25.9 °F 43% 30.25 in 10.0 mi West 9.2 mph - N/A   Clear
3:35 PM 47.5 °F - 25.7 °F 43% 30.25 in 10.0 mi WSW 6.9 mph - N/A   Clear
3:36 PM 47.5 °F - 25.9 °F 43% 30.25 in 10.0 mi WSW 5.8 mph - N/A   Clear
3:59 PM 47.3 °F - 25.0 °F 42% 30.24 in 10.0 mi SSW 10.4 mph - N/A   Clear
4:17 PM 46.6 °F - 25.7 °F 44% 30.24 in 10.0 mi SSW 6.9 mph - N/A   Clear
4:35 PM 46.9 °F - 25.9 °F 44% 30.23 in 10.0 mi WSW 5.8 mph - N/A   Clear
4:55 PM 46.6 °F - 26.4 °F 45% 30.23 in 10.0 mi SSW 6.9 mph - N/A   Clear
4:56 PM 46.6 °F - 26.4 °F 45% 30.23 in 10.0 mi SSW 6.9 mph - N/A   Clear
5:15 PM 46.9 °F - 27.0 °F 46% 30.23 in 10.0 mi SW 4.6 mph - N/A   Clear
5:20 PM 46.8 °F - 26.8 °F 46% 30.23 in 10.0 mi WSW 5.8 mph - N/A   Clear
5:38 PM 46.0 °F 43.9 °F 26.6 °F 47% 30.22 in 10.0 mi SW 4.6 mph - N/A   Clear
5:56 PM 45.7 °F 42.7 °F 26.8 °F 48% 30.22 in 10.0 mi SW 5.8 mph - N/A   Clear
6:15 PM 45.1 °F 43.7 °F 27.0 °F 49% 30.22 in 10.0 mi SW 3.5 mph - N/A   Clear
6:35 PM 44.1 °F 42.5 °F 27.3 °F 52% 30.22 in 10.0 mi SSW 3.5 mph - N/A   Clear
6:36 PM 44.1 °F 42.5 °F 27.3 °F 52% 30.22 in 10.0 mi SSW 3.5 mph - N/A   Clear
6:59 PM 43.3 °F - 27.9 °F 54% 30.21 in 10.0 mi Calm Calm - N/A   Clear
7:35 PM 42.1 °F - 28.6 °F 59% 30.22 in 10.0 mi Calm Calm - N/A   Clear
7:55 PM 41.9 °F - 28.4 °F 59% 30.22 in 10.0 mi Calm Calm - N/A   Clear
7:56 PM 41.7 °F - 28.6 °F 60% 30.22 in 10.0 mi Calm Calm - N/A   Clear
8:15 PM 39.2 °F - 29.1 °F 67% 30.23 in 10.0 mi Calm Calm - N/A   Clear
8:38 PM 39.2 °F - 29.3 °F 68% 30.21 in 10.0 mi Calm Calm - N/A   Clear
8:56 PM 39.0 °F - 29.7 °F 69% 30.20 in 10.0 mi Calm Calm - N/A   Clear
9:15 PM 38.3 °F - 29.5 °F 71% 30.20 in 10.0 mi Calm Calm - N/A   Clear
9:16 PM 38.1 °F 35.7 °F 29.3 °F 71% 30.20 in 10.0 mi ESE 3.5 mph - N/A   Clear
9:35 PM 37.4 °F 34.9 °F 29.1 °F 72% 30.20 in 10.0 mi SE 3.5 mph - N/A   Clear
9:36 PM 37.2 °F 34.7 °F 29.1 °F 73% 30.20 in 10.0 mi SE 3.5 mph - N/A   Clear
9:58 PM 36.5 °F 33.9 °F 29.7 °F 76% 30.20 in 10.0 mi SE 3.5 mph - N/A   Clear
10:17 PM 36.3 °F 33.7 °F 29.7 °F 77% 30.20 in 10.0 mi SE 3.5 mph - N/A   Clear
10:35 PM 35.8 °F - 29.3 °F 77% 30.20 in 10.0 mi Calm Calm - N/A   Clear
10:55 PM 35.6 °F - 28.9 °F 77% 30.20 in 10.0 mi Calm Calm - N/A   Clear
10:56 PM 35.6 °F 32.8 °F 28.8 °F 76% 30.20 in 10.0 mi SE 3.5 mph - N/A   Clear
11:15 PM 35.8 °F - 28.9 °F 76% 30.20 in 10.0 mi Calm Calm - N/A   Clear
11:20 PM 34.5 °F - 28.2 °F 78% 30.20 in 10.0 mi Calm Calm - N/A   Clear
11:38 PM 36.7 °F 34.1 °F 29.3 °F 75% 30.20 in 10.0 mi SE 3.5 mph - N/A   Clear
11:56 PM 37.4 °F 33.8 °F 30.6 °F 76% 30.19 in 10.0 mi SE 4.6 mph - N/A   Clear